TimeEST,TemperatureF,Dew PointF,Humidity,Sea Level PressureIn,VisibilityMPH,Wind Direction,Wind SpeedMPH,Gust SpeedMPH,PrecipitationIn,Events,Conditions,WindDirDegrees,DateUTC
12:04 AM,64.9,64.9,100,30.11,1.8,Calm,Calm,-,N/A,,Overcast,0,2013-12-10 05:04:00
12:10 AM,66.0,64.9,96,30.11,0.8,ESE,3.5,-,N/A,,Overcast,110,2013-12-10 05:10:00
12:36 AM,64.0,64.0,100,30.10,2.0,South,3.5,-,N/A,,Overcast,170,2013-12-10 05:36:00
12:43 AM,64.9,64.0,97,30.10,4.0,South,3.5,-,N/A,,Mostly Cloudy,180,2013-12-10 05:43:00
12:50 AM,64.4,64.4,100,30.10,6.0,South,3.5,-,N/A,,Mostly Cloudy,180,2013-12-10 05:50:00
12:53 AM,66.0,64.9,96,30.10,6.0,South,3.5,-,N/A,,Mostly Cloudy,180,2013-12-10 05:53:00
1:53 AM,64.0,64.0,100,30.10,6.0,SSE,3.5,-,N/A,,Partly Cloudy,160,2013-12-10 06:53:00
2:02 AM,64.0,64.0,100,30.10,2.5,SE,4.6,-,N/A,,Mostly Cloudy,130,2013-12-10 07:02:00
2:15 AM,64.0,64.0,100,30.10,6.0,Calm,Calm,-,N/A,,Mostly Cloudy,0,2013-12-10 07:15:00
2:27 AM,64.9,64.9,100,30.10,2.5,SSE,3.5,-,N/A,,Overcast,160,2013-12-10 07:27:00
2:36 AM,64.0,64.0,100,30.10,4.0,Calm,Calm,-,N/A,,Overcast,0,2013-12-10 07:36:00
2:46 AM,64.9,64.9,100,30.10,4.0,South,4.6,-,N/A,,Overcast,170,2013-12-10 07:46:00
2:53 AM,66.0,64.9,96,30.09,6.0,South,3.5,-,N/A,,Overcast,180,2013-12-10 07:53:00
3:53 AM,66.0,66.0,100,30.10,8.0,Calm,Calm,-,N/A,,Overcast,0,2013-12-10 08:53:00
4:53 AM,66.9,64.9,93,30.10,9.0,SSW,3.5,-,N/A,,Mostly Cloudy,210,2013-12-10 09:53:00
5:53 AM,66.9,64.9,93,30.10,9.0,South,6.9,-,N/A,,Overcast,190,2013-12-10 10:53:00
6:53 AM,66.9,66.0,97,30.11,9.0,South,6.9,-,N/A,,Clear,180,2013-12-10 11:53:00
7:53 AM,68.0,66.9,96,30.11,8.0,SSW,6.9,-,N/A,,Mostly Cloudy,200,2013-12-10 12:53:00
8:17 AM,69.1,66.9,93,30.12,8.0,SSW,8.1,-,N/A,,Overcast,200,2013-12-10 13:17:00
8:53 AM,70.0,68.0,93,30.13,9.0,SW,9.2,-,N/A,,Mostly Cloudy,220,2013-12-10 13:53:00
9:07 AM,71.1,68.0,90,30.14,10.0,SSW,10.4,-,N/A,,Scattered Clouds,210,2013-12-10 14:07:00
9:53 AM,73.0,68.0,84,30.14,10.0,SSW,11.5,-,N/A,,Mostly Cloudy,210,2013-12-10 14:53:00
10:53 AM,77.0,68.0,74,30.14,10.0,SSW,15.0,19.6,N/A,,Mostly Cloudy,200,2013-12-10 15:53:00
11:01 AM,77.0,68.0,74,30.14,10.0,SW,13.8,21.9,N/A,,Mostly Cloudy,220,2013-12-10 16:01:00
11:53 AM,79.0,68.0,69,30.12,10.0,SW,15.0,21.9,N/A,,Mostly Cloudy,230,2013-12-10 16:53:00
12:20 PM,79.0,66.9,66,30.10,10.0,SW,15.0,23.0,N/A,,Overcast,230,2013-12-10 17:20:00
12:53 PM,80.1,66.9,64,30.08,10.0,SSW,13.8,-,N/A,,Overcast,210,2013-12-10 17:53:00
1:53 PM,72.0,68.0,87,30.07,3.0,NNW,13.8,-,0.00,Rain,Light Rain,330,2013-12-10 18:53:00
2:00 PM,70.0,66.9,90,30.09,1.8,WNW,11.5,-,0.00,Rain,Heavy Rain,290,2013-12-10 19:00:00
2:03 PM,69.1,66.9,93,30.10,0.8,WNW,11.5,-,0.04,Rain,Heavy Rain,290,2013-12-10 19:03:00
2:16 PM,69.1,68.0,96,30.09,2.0,West,4.6,-,0.25,Rain,Rain,280,2013-12-10 19:16:00
2:23 PM,69.1,68.0,96,30.08,2.5,West,5.8,-,0.27,Rain,Rain,260,2013-12-10 19:23:00
2:31 PM,70.0,69.1,97,30.08,6.0,SW,4.6,-,0.28,Rain,Light Rain,230,2013-12-10 19:31:00
2:53 PM,71.1,69.1,93,30.08,10.0,WSW,9.2,-,0.28,Rain,Light Rain,250,2013-12-10 19:53:00
3:07 PM,72.0,70.0,93,30.08,10.0,WSW,8.1,-,0.01,,Overcast,240,2013-12-10 20:07:00
3:31 PM,72.0,71.1,97,30.08,10.0,West,6.9,-,0.01,,Mostly Cloudy,260,2013-12-10 20:31:00
3:44 PM,72.0,70.0,93,30.09,10.0,WNW,10.4,-,0.01,Rain,Light Rain,290,2013-12-10 20:44:00
3:53 PM,72.0,69.1,91,30.09,10.0,NW,15.0,20.7,0.01,Rain,Light Rain,320,2013-12-10 20:53:00
4:12 PM,70.0,66.0,87,30.10,10.0,NNW,6.9,-,0.00,,Overcast,330,2013-12-10 21:12:00
4:53 PM,70.0,66.0,87,30.11,10.0,NNW,5.8,-,0.00,,Overcast,330,2013-12-10 21:53:00
5:37 PM,69.1,64.0,84,30.14,10.0,NNW,8.1,-,N/A,,Overcast,340,2013-12-10 22:37:00
5:53 PM,68.0,64.0,87,30.14,10.0,NNW,6.9,-,N/A,,Overcast,340,2013-12-10 22:53:00
6:24 PM,66.9,61.0,81,30.16,10.0,NNW,8.1,-,N/A,,Overcast,330,2013-12-10 23:24:00
6:53 PM,66.0,60.1,81,30.17,10.0,NNW,6.9,-,N/A,,Partly Cloudy,340,2013-12-10 23:53:00
7:53 PM,63.0,57.9,84,30.20,10.0,North,8.1,-,N/A,,Clear,350,2013-12-11 00:53:00
8:53 PM,60.1,53.1,78,30.22,10.0,North,10.4,-,N/A,,Clear,10,2013-12-11 01:53:00
9:53 PM,57.0,51.1,81,30.24,10.0,North,6.9,-,N/A,,Clear,360,2013-12-11 02:53:00
10:53 PM,55.0,48.9,80,30.25,10.0,North,6.9,-,N/A,,Clear,360,2013-12-11 03:53:00
11:53 PM,54.0,46.9,77,30.25,10.0,NNE,10.4,-,N/A,,Clear,20,2013-12-11 04:53:00